NKS1984 KATL-KFLL

Flight info

Callsign NKS1984
Flight time N/A
Altitude 39000
Route SMLTZ3 WALET ZPLEN TEEKY3
Aircraft A20N/M-SDE2E3FGHIRWXY/LB1

Departure

Time N/A
Airport Hartsfield Jackson Atlanta International Airport (KATL)

Arrival

Time 2026-05-04 00:01
Airport Fort Lauderdale Hollywood International Airport (KFLL)
Time Latitude Longitude Altitude Speed Heading
2026-05-03 23:46 26.14022 -80.94336 9840 ft 287 kts 100°
2026-05-03 23:47 26.13769 -80.92690 9384 ft 284 kts 99°
2026-05-03 23:47 26.13465 -80.90675 8804 ft 282 kts 99°
2026-05-03 23:47 26.13132 -80.88535 8380 ft 280 kts 100°
2026-05-03 23:47 26.12791 -80.86420 8032 ft 278 kts 100°
2026-05-03 23:48 26.12445 -80.84309 7708 ft 276 kts 100°
2026-05-03 23:48 26.12107 -80.82269 7405 ft 273 kts 100°
2026-05-03 23:48 26.11801 -80.80431 7136 ft 271 kts 100°
2026-05-03 23:48 26.11476 -80.78478 6776 ft 271 kts 100°
2026-05-03 23:49 26.11184 -80.76739 6396 ft 273 kts 100°
2026-05-03 23:49 26.10913 -80.75124 6107 ft 272 kts 100°
2026-05-03 23:49 26.10589 -80.73193 5777 ft 270 kts 100°
2026-05-03 23:49 26.10285 -80.71385 5462 ft 269 kts 100°
2026-05-03 23:50 26.09940 -80.69332 5113 ft 267 kts 100°
2026-05-03 23:50 26.09620 -80.67428 4946 ft 264 kts 100°
2026-05-03 23:50 26.09290 -80.65471 4587 ft 264 kts 100°
2026-05-03 23:50 26.08989 -80.63680 4231 ft 264 kts 100°
2026-05-03 23:51 26.08670 -80.61790 3956 ft 267 kts 100°
2026-05-03 23:51 26.08348 -80.59883 4123 ft 272 kts 101°
2026-05-03 23:51 26.07806 -80.57959 4664 ft 269 kts 119°
2026-05-03 23:51 26.07200 -80.57024 4857 ft 268 kts 134°
2026-05-03 23:52 26.05781 -80.55942 4984 ft 268 kts 159°
2026-05-03 23:52 26.03981 -80.55447 4992 ft 268 kts 171°
2026-05-03 23:52 26.02123 -80.55145 4991 ft 267 kts 168°
2026-05-03 23:52 26.00424 -80.54353 4992 ft 267 kts 144°
2026-05-03 23:53 25.99045 -80.52930 4982 ft 267 kts 123°
2026-05-03 23:53 25.98309 -80.51019 4996 ft 267 kts 104°
2026-05-03 23:53 25.97941 -80.48985 4991 ft 267 kts 95°
2026-05-03 23:53 25.97866 -80.46892 4988 ft 267 kts 85°
2026-05-03 23:54 25.98287 -80.44900 4974 ft 267 kts 62°
2026-05-03 23:54 25.99445 -80.43279 4990 ft 267 kts 42°
2026-05-03 23:54 26.00877 -80.41924 4988 ft 261 kts 38°
2026-05-03 23:54 26.02268 -80.40700 4984 ft 245 kts 38°
2026-05-03 23:55 26.03573 -80.39569 4901 ft 234 kts 37°
2026-05-03 23:55 26.04859 -80.38457 4690 ft 229 kts 37°
2026-05-03 23:55 26.06099 -80.37367 4407 ft 228 kts 43°
2026-05-03 23:55 26.06925 -80.35875 4064 ft 228 kts 80°
2026-05-03 23:56 26.06974 -80.34226 3819 ft 225 kts 94°
2026-05-03 23:56 26.06855 -80.32440 3529 ft 222 kts 92°
2026-05-03 23:56 26.06920 -80.30836 3632 ft 189 kts 83°
2026-05-03 23:56 26.07173 -80.29480 3487 ft 173 kts 75°
2026-05-03 23:57 26.07582 -80.27591 2949 ft 171 kts 78°
2026-05-03 23:57 26.07716 -80.26749 2554 ft 181 kts 83°
2026-05-03 23:57 26.07797 -80.25474 1770 ft 203 kts 88°
2026-05-03 23:58 26.07766 -80.24233 1199 ft 206 kts 96°
2026-05-03 23:58 26.07733 -80.23925 1056 ft 160 kts 96°
2026-05-03 23:58 26.07701 -80.22769 716 ft 153 kts 87°
2026-05-03 23:58 26.07718 -80.22383 654 ft 148 kts 90°
2026-05-03 23:59 26.07703 -80.21462 580 ft 130 kts 91°
2026-05-03 23:59 26.07706 -80.20592 467 ft 139 kts 88°
2026-05-03 23:59 26.07730 -80.19482 551 ft 135 kts 90°
2026-05-03 23:59 26.07714 -80.18456 393 ft 131 kts 91°
2026-05-04 00:00 26.07707 -80.17432 322 ft 136 kts 91°
2026-05-04 00:00 26.07699 -80.16709 140 ft 136 kts 92°
2026-05-04 00:00 26.07689 -80.16161 42 ft 132 kts 90°
2026-05-04 00:00 26.07691 -80.15729 11 ft 123 kts 91°
2026-05-04 00:01 26.07686 -80.15029 10 ft 78 kts 89°
2026-05-04 00:01 26.07662 -80.14701 10 ft 30 kts 103°
2026-05-04 00:01 26.07633 -80.14601 10 ft 8 kts 110°
2026-05-04 00:01 26.07621 -80.14576 10 ft 0 kts 122°
2026-05-04 00:03 26.07608 -80.14553 10 ft 18 kts 122°
2026-05-04 00:03 26.07591 -80.14531 10 ft 0 kts 143°
2026-05-04 00:05 26.07590 -80.14530 10 ft 0 kts 143°
2026-05-04 00:05 26.07591 -80.14531 10 ft 0 kts 143°
2026-05-04 00:06 26.07581 -80.14523 10 ft 4 kts 146°
2026-05-04 00:06 26.07536 -80.14510 10 ft 10 kts 174°
2026-05-04 00:06 26.07488 -80.14571 10 ft 13 kts 268°
2026-05-04 00:06 26.07489 -80.14676 10 ft 13 kts 271°
2026-05-04 00:07 26.07480 -80.14780 10 ft 13 kts 234°
2026-05-04 00:07 26.07408 -80.14851 10 ft 14 kts 201°
2026-05-04 00:07 26.07307 -80.14854 10 ft 14 kts 178°
2026-05-04 00:07 26.07207 -80.14852 9 ft 11 kts 176°
2026-05-04 00:08 26.07148 -80.14813 10 ft 6 kts 108°
2026-05-04 00:08 26.07136 -80.14784 10 ft 2 kts 124°
2026-05-04 00:08 26.07134 -80.14779 10 ft 1 kts 121°
2026-05-04 00:08 26.07127 -80.14767 10 ft 0 kts 121°
2026-05-04 00:09 26.07125 -80.14762 10 ft 1 kts 120°
2026-05-04 00:09 26.07123 -80.14758 10 ft 0 kts 120°